DELTA 1 DEB, 10832

Orbit data source: Space-Track

DELTA 1 DEB, 10832 is space debris in SSO originally from a launch on Thu, 29 Jul 1976 UTC launched from the Air Force Western Test Range (AFWTR). Debris objects in space refer to the collection of defunct objects orbiting the Earth. Examples of debris include non-operational satellites, rocket bodies, and fragments generated from explosions, collisions, or faulty payload assembly.

Loading next visibility...
Identifier
10832, 1976-077CC
Orbit
SSO
Country
Flag of USUS
Related business
Manufacturer
Unknown
Mission
Spacecraft
Bus & Motor
Unknown
Mass
Unknown
Launch date (UTC)
1976-07-29 (49 years ago)
Launch vehicle
Unknown
Launch site
Air Force Western Test Range (AFWTR)
Object type
Payload
Rocket body
Debris
Shape & HBR
Unknown shape, 0.1 m
Radar Cross Section
Small (<0.1 m²)

Expand to show TLE details & history
Last TLE update: 19 hours ago

TLE from 19 hours ago
0 DELTA 1 DEB
1 10832U 76077CC  25352.75272443 -.00000054  00000-0 -99908-4 0  9992
2 10832 102.2748 278.5544 0119230 145.3838 273.6849 12.20085900199660
Epoch: 2025-12-18T18:03Z
TLE epoch observation values (Epoch: 2025-12-18T18:03:55.390Z)
Latitude
55.78078°
Longitude
-98.59462°
Altitude
1,596.234 km
Speed
7.079 km/s
True Right ascension
17h 19m 57s
True Declination
55° 38' 15"
Sunlit
Object was in daylight at epoch
Visualization orbit readout
Latitude
Unknown
Longitude
Unknown
Altitude
Unknown
Speed
Unknown
Apparent Right ascension
Unknown
Apparent Declination
Unknown
Sunlit
N/A
Visualization observer readout
Local Sidereal Time
11:28:28
Azimuth
Unknown
Elevation
Unknown
Doppler factor
Unknown
Orbital elements
Apogee altitude
1,684.786 km
Perigee altitude
1,494.782 km
Semi-major axis
7,967.921 km
Eccentricity
0.01192
Inclination
102.2748°
RAAN
278.5544°
Arg. of periapsis
145.3838°
True anomaly
272.32027°
Mean anomaly
273.6849°
Eccentric anomaly
273.0027°
Mean motion
3.05159 °/min
Orbital period
117.97 mins
BSTAR
-0.000099908
Loading maneuver chart data...
Computing Atmospheric mass density...
Loading historical data...
Loading historical data...
Loading historical data...
Loading historical data...
Loading historical data...
Loading historical data...
Loading historical data...

Documentation

Showing up to 5 results
|